Location: Ripley
(48.3812°N, 115.4473°W)
Time: 02:58:00
(UTC+00:00)

RS-15 - Pass Details

Date: 06 July 2022
Orbit: 1881 x 2163 km, 64.8° (Epoch: 10 August)

Event Time Altitude Azimuth Distance (km) Brightness Sun altitude
Rises 07:27:05 0° 322° (NW) 5,700 11.4 -18.8°
Reaches altitude 10° 07:30:43 10° 317° (NW) 4,690 10.7 -18.9°
Maximum altitude 07:42:10 48° 249° (WSW) 2,621 8.5 -18.9°
Enters shadow 07:49:18 24° 190° (S) 3,538 8.8 -18.9°
